Skip Page Navigation
NASA JPL Caltech
NASA Logo - Jet Propulsion Laboratory + View the NASA Portal
+ Center for Near-Earth Object Studies
JPL Home Earth Solar System Stars & Galaxies Technology
JPL Solar System Dynamics
BODIES ORBITS EPHEMERIDES TOOLS PHYSICAL DATA DISCOVERY FAQ SITE MAP
JPL Small-Body Database Browser
Search: [ help ]  
43464 (2001 AA9)
Classification: Main-belt Asteroid          SPK-ID: 2043464
Ephemeris | Orbit Diagram | Orbital Elements | Mission Design | Physical Parameters | Discovery Circumstances ]

[ show orbit diagram ]
Orbital Elements at Epoch 2459396.5 (2021-Jul-01.0) TDB
Reference: JPL 34 (heliocentric ecliptic J2000)
 Element Value Uncertainty (1-sigma)   Units 
e .141623766369338 3.6154e-08  
a 2.297292701496914 7.2216e-09 au
q 1.971941456658129 8.4553e-08 au
i 5.830920337202246 3.0935e-06 deg
node 249.5337697318662 3.8339e-05 deg
peri 89.90186464256557 4.055e-05 deg
M 77.2133622843163 1.1463e-05 deg
tp 2459123.719770944368
(2020-Oct-01.21977094)
4.0727e-05 TDB
period 1271.812022618967
3.48
5.997e-06
1.642e-08
d
yr
n .2830606989063315 1.3347e-09 deg/d
Q 2.622643946335698 8.2443e-09 au
  Orbit Determination Parameters
   # obs. used (total)      1455  
   data-arc span      13487 days (36.93 yr)  
   first obs. used      1984-03-06  
   last obs. used      2021-02-07  
   planetary ephem.      DE441  
   SB-pert. ephem.      SB441-N16  
   condition code      0  
   norm. resid. RMS      .46955  
   source      ORB  
   producer      Otto Matic  
   solution date      2021-Jul-08 21:05:10  

Additional Information
 Earth MOID = .972872 au 
 Jupiter MOID = 2.75116 au 
 T_jup = 3.574 
[ show covariance matrix ]

Ephemeris | Orbit Diagram | Orbital Elements | Mission Design | Physical Parameters | Discovery Circumstances ]

Physical Parameter Table
Parameter Symbol Value Units Sigma Reference Notes
absolute magnitude H 15.29   n/a E2021B10  
rotation period rot_per 101.649 h n/a LCDB (Rev. 2020-October); Warner et al., 2009 Result based on less than full coverage, so that the period may be wrong by 30 percent or so.
Published Reference List:
[Waszczak, A.; Chang, C.-K.; Ofeck, E.O.; Laher, F.; et al. (2015) Astron. J. 150, A75.]
[Pal, A.; Szakats, R.; Kiss, C.; Bodi, A.; et al. (2019) Ap. J. Supl. Ser. 247, id.26.]

43464 (2001 AA9)          Discovered 2001-Jan-02 by LINEAR at Socorro
Reference: 20020624/Numbers.arcLast Updated: 2004-04-19
Ephemeris | Orbit Diagram | Orbital Elements | Mission Design | Physical Parameters | Discovery Circumstances ]
ABOUT SSD CREDITS/AWARDS PRIVACY/COPYRIGHT GLOSSARY LINKS
FirstGov 2021-Jul-27 06:30 UT
(server date/time)  
NASA Home Page
Site Manager:   Ryan S. Park
Webmaster  Alan B. Chamberlin